Погода в Нижнесортымском

Россия / Ханты-Мансийский автономный округ - Югра     62°26′34″N   71°45′54″E
темп.,
°C
ветер,
м/с
пор.,
м/с
влажн.,
%
обл.,
%
осадки,
мм/ч
давл.,
гПа
погр.,
м
24 октября, вс
вс2423:00+2зюз6129298 0.0 991271
02:00+2з71394100 0.1 993448
05:00+2зюз81688100 0.1 994547
08:000з9159279 0.4 996716
11:000з914785 0.4 1000828
14:00+1з812775 0.0 1003770
17:00−1з611835 0.0 1006297
20:00−2зюз49885 0.0 1007179
25 октября, пн
пн2523:00−3з33895 0.0 100756
02:00−3с11875 0.0 100617
05:00−3ссв2383100 0.0 100555
08:00−3с348340 0.0 1005100
11:00−2ссз237299 0.0 1007290
14:00−1зсз226758 0.0 1008377
17:00−2ю117596 0.0 100911
20:00−2ююв3473100 0.0 1009115
26 октября, вт
вт2623:00−2юв4797100 0.3 1007308
02:00−1юв4898100 1.4 1004303
05:00−1ююв2499100 4.1 1001223
08:00−1сз5798100 3.1 999255
11:00−2ссз71095100 4.1 998508
14:00−3ссз101494100 0.3 999804
17:00−3ссз101595100 1.1 1001992
20:00−5сз101681100 0.3 1003562
27 октября, ср
ср2723:00−7зсз814875 0.3 1005360
02:00−6з713885 0.0 1007329
05:00−7з713895 0.0 1008308
08:00−7з7138931 0.0 1010339
11:00−6з7128974 0.0 1011570
14:00−5з6118631 0.0 1013522
17:00−7з488876 0.0 1015107
20:00−9з349019 0.0 101638
28 октября, чт
чт2823:00−10зюз229374 0.0 101620
02:00−8ю2293100 0.0 101621
05:00−6юв3692100 0.0 1014132
08:00−5юв5989100 0.0 1012224
11:00−3юв61197100 0.6 1008512
14:00−2юв61097100 1.1 1005411
17:00−1юв5998100 2.6 1002307
20:00−1ююв4799100 1.7 999214